星链-30382 (STARLINK-30382 )

导读 | 豆包AI

STARLINK-30382是美国太空探索技术公司(SpaceX)星链星座的组网卫星,星链计划旨在构建全球卫星互联网,为偏远地区等提供高速网络服务。该卫星于2023年9月4日发射升空,加入低轨星座网络,进一步扩充星链系统的覆盖范围与服务能力。

基本信息
目录编号:
57786
目录名称:
STARLINK-30382
国际标识:
2023-134R
轨道中心:
EARTH
卫星名称:
星链-30382
卫星全名:
星链-30382 (STARLINK-30382 )
卫星状态:
在轨 (已飞行969 天)
发射日期:
2023-09-04 UTC
国别 :
美国 (US)
星等 :
--
轨道信息
数据来源 国际轨道数据 AOE轨道数据
星历时间 2026-04-30T02:40:01+0800
22小时前
查看轨道信息
2026-04-30T07:00:00+0800
18小时前
查看轨道信息
半长轴 6861.184km 6861.187km
偏心率 0.0001679 0.0002763
轨道倾角 43.003° 43.003°
近地点辐角 274.254° 293.515°
升交点赤经 265.662° 264.645°
平近点角 85.812° 340.547°
近地点 481.895km 481.154km
远地点 484.199km 484.946km
周期 94.267分钟 94.267分钟
每日圈数 15.275808 15.275797
详细信息
固有亮度:
5
最大亮度:
0.3
卫星平台:
Starlink v2.0 mini
覆盖范围:
全球
运营商:
太空探索技术公司
运营商所在国:
美国
制造商(研发单位):
太空探索技术公司
制造商所在国:
美国
使用方式:
暂无
卫星简介
星链(Starlink)计划是由太空探索技术公司(SpaceX)提出的一个巨型低轨卫星互联网星座项目,计划在2019年至2024年间在太空搭建由约1.2万颗卫星组成的“星链”网络,其中1584颗将部署在地球上空550千米处的近地轨道,并从2020年开始工作。该卫星仍在工作。
2D轨道图
3D轨道图
轨道高度分析图
轨道倾角分析图
轨道综合分析图
查看轨道综合分析图